Starlink 34796

operational
NORAD ID: 65205 Int'l Des: 2025-176 Owner: SPXS Country: US Constellation: starlink
LEOCIRCULAR

About Starlink 34796

Description loading...

Live Position

Loading 3D Globe...

Upcoming Passes

Altitude History

Altitude vs Time

uPlot chart will show altitude changes over time

Two-Line Element Set

1 65205U 25176H 25312.44990981 .00053276 00000-0 17992-2 0 9999
2 65205 53.1602 356.1945 0001399 78.5034 281.6124 15.30179506 14555
Epoch: Nov 8, 2025 • Age: 41 hours

Current Status

Altitude 476.5 km
Velocity 7.63 km/s
Sub-Earth Point 33.92°N, 26.4°E
Launch Date Aug 14, 2025
Age 0.2 years
Type internet

Technical Details

Classification Payload
Mass 575.00 kg
Dry Mass 530.00 kg
Total Mass 575.00 kg
Length 0.30 m
Diameter 4.10 m
Span 29.00 m
Shape Box + pan
Manufacturer SPXS
Bus Type Starlink V2MO
Phase Status In Orbit
Owner/State SPXS/US

Large Constellations

Loading constellations...